Hourly Weather Roundup
Issued by NWS Central Illinois

Home | Current Version | Previous Version | Text Only | Print | Product List | Glossary On
Versions: 1 2 3 4 5 6 7 8 9 10 11 12 13 14 15 16 17 18 19 20 21 22 23 24 25 26 27 28 29 30 31 32 33 34 35 36 37 38 39 40 41 42 43 44 45 46 47 48 49 50
000
NZUS43 KILX 221110
HWRILX

AREA WEATHER ROUNDUP
NATIONAL WEATHER SERVICE, LINCOLN IL
500 AM CST SUN JAN 22 2017


CITY           SKY/WX    TMP DP  RH WIND       PRES   REMARKS
BLOOMINGTON    LGT RAIN  38  37  97 NE12      29.57R VSB 1/4 WCI  30
CHAMPAIGN      CLOUDY    47  42  83 NE10      29.54R
DANVILLE       RAIN      41  41  99 NE3       29.52R
DECATUR        CLOUDY    43  42  97 N10       29.53R
EFFINGHAM      PTCLDY    50  50 100 CALM      29.52S
FLORA          CLOUDY    50  48  95 CALM      29.51S
GALESBURG      MOCLDY    33  33 100 CALM      29.58R FOG
JACKSONVILLE   FOG       40  40 100 N8        29.57R VSB 1/2 WCI  35
LACON          DRZL/FOG  37  37 100 N3        29.58R VSB<1/4
LAWRENCEVILLE  CLOUDY    47  47 100 E7        29.52S
LITCHFIELD     CLOUDY    42  41  95 N9        29.52R
$$


CITY           SKY/WX    TMP DP  RH WIND       PRES   REMARKS
LINCOLN        FOG       39  39 100 N8        29.57R VSB 1/2 WCI  33
MACOMB         FOG       35  35 100 CALM      29.60R VSB 1
MATTOON        FOG       45  44  97 CALM      29.50F VSB 1/2
MT CARMEL AP   CLOUDY    46  44  91 E5        29.52R
OLNEY-NOBLE AP CLOUDY    46  46 100 NE3       29.51S
PARIS            N/A     42  42 100 E3        29.54S FOG
PEORIA         CLOUDY    41  41 100 NE5       29.58R FOG
PONTIAC        DRZL/FOG  41  41 100 N7        29.59R VSB 1/4
RANTOUL        CLOUDY    41  40  97 N6        29.55R FOG
SPRINGFIELD    FOG       41  39  93 N12       29.55S VSB 1/4 WCI  34
TAYLORVILLE    CLOUDY    41  40  97 N8        29.53S
$$

...REGIONAL REPORTS...


CITY           SKY/WX    TMP DP  RH WIND       PRES   REMARKS
CHICAGO O`HARE CLOUDY    40  39  97 NW6       29.57F FOG
KANKAKEE       FOG       37  36  98 CALM      29.59R VSB 1/2
MOLINE         PTCLDY    31  29  92 CALM      29.59R FOG
MOUNT STERLING CLOUDY    39  39  98 N8        29.56F FOG     WCI  34
MOUNT VERNON   CLOUDY    45  44  97 CALM      29.51R
PITTSFIELD     FOG       43  43 100 N7        29.57R VSB 3/4
QUINCY         CLOUDY    40  39  97 NE12      29.55F FOG     WCI  33
ROCKFORD       FOG       34  33  96 CALM      29.59S VSB 1/8
$$


CITY           SKY/WX    TMP DP  RH WIND       PRES   REMARKS
BURLINGTON     FOG       34  34 100 CALM      29.59R VSB 1/2
CEDAR RAPIDS   FOG       31  31 100 CALM      29.58S VSB 1/2
DES MOINES     CLOUDY    33  31  92 N10       29.62R FOG     WCI  25
KIRKSVILLE     CLOUDY    40  40 100 NE6       29.57F FOG
OTTUMWA        FOG       30  28  92 NW6       29.58S VSB 1/4 WCI  24
ST LOUIS       CLOUDY    49  41  74 N5        29.51R
$$


CITY           SKY/WX    TMP DP  RH WIND       PRES   REMARKS
TERRE HAUTE    CLOUDY    48  45  89 E5        29.52F
EVANSVILLE     CLOUDY    51  47  86 E3        29.52R
INDIANAPOLIS   PTCLDY    50  48  93 E8        29.54F
LAFAYETTE      FOG       40  40 100 NE3       29.55R VSB 1/4
MADISON        CLOUDY    38  37  97 CALM      29.58S FOG
MILWAUKEE      CLOUDY    40  38  93 CALM      29.57S FOG
$$





USA.gov is the U.S. government's official web portal to all federal, state and local government web resources and services.